Location: Newark
(49.3000°N, 9.4667°E)
Time: 10:21:38
(UTC+00:00)

Explorer 7 - All Passes

Search period start: 20 May 2019 00:00
Search period end: 30 May 2019 00:00
Orbit: 485 x 680 km, 50.3° (Epoch: 20 May)

Date Brightness Start Highest point End Pass type
(mag) Time Alt. Az. Time Alt. Az. Time Alt. Az.
20 May - 00:16:49 10° W 00:21:23 82° N 00:25:39 10° E visible
20 May - 01:57:37 10° WNW 02:01:51 47° SSW 02:05:47 10° SE visible
20 May - 03:39:53 10° WSW 03:41:32 12° SW 03:43:08 10° SSW daylight
20 May - 19:22:16 10° S 19:25:15 16° SE 19:28:10 10° E daylight
20 May - 21:00:32 10° SW 21:05:12 53° SSE 21:09:40 10° ENE visible
20 May - 22:41:03 10° W 22:45:46 81° N 22:50:12 10° E visible
21 May - 00:21:56 10° WNW 00:26:30 89° SSW 00:30:46 10° ESE visible
21 May - 02:02:49 10° W 02:06:48 34° SW 02:10:32 10° SSE visible
21 May - 19:26:15 10° SSW 19:30:05 24° SE 19:33:49 10° E daylight
21 May - 21:05:28 10° WSW 21:10:15 68° SSE 21:14:47 10° ENE visible
21 May - 22:46:13 10° W 22:50:55 78° N 22:55:20 10° E visible
22 May - 00:27:04 10° WNW 00:31:36 75° SSW 00:35:50 10° ESE visible
22 May - 02:08:08 10° W 02:11:41 24° SW 02:15:02 10° SSE visible
22 May - 19:30:39 10° SSW 19:34:59 33° SE 19:39:11 10° E daylight
22 May - 21:10:30 10° WSW 21:15:19 83° SSE 21:19:54 10° ENE visible
22 May - 22:51:21 10° W 22:56:04 79° N 23:00:28 10° E visible
23 May - 00:32:10 10° WNW 00:36:39 59° SSW 00:40:48 10° SE visible
23 May - 02:13:42 10° W 02:16:30 17° SW 02:19:12 10° S visible
23 May - 17:58:00 10° SSE 18:00:07 13° SE 18:02:13 10° ESE daylight
23 May - 19:35:19 10° SW 19:39:56 44° SSE 19:44:24 10° ENE daylight
23 May - 21:15:37 10° W 21:20:26 86° N 21:25:01 10° E visible
23 May - 22:56:30 10° W 23:01:12 84° NNE 23:05:36 10° E visible
24 May - 00:37:20 10° WNW 00:41:38 44° SSW 00:45:40 10° SE visible
24 May - 02:20:08 10° WSW 02:21:15 11° SW 02:22:22 10° SSW visible
24 May - 18:01:30 10° S 18:04:54 19° SE 18:08:16 10° E daylight
24 May - 19:40:09 10° SW 19:44:56 59° SSE 19:49:33 10° ENE visible
24 May - 21:20:45 10° W 21:25:34 80° N 21:30:07 10° E visible
24 May - 23:01:37 10° WNW 23:06:19 85° SSW 23:10:42 10° ESE visible
25 May - 00:42:33 10° W 00:46:34 32° SW 00:50:21 10° SSE visible
25 May - 18:05:40 10° SSW 18:09:45 27° SE 18:13:47 10° E daylight
25 May - 19:45:07 10° WSW 19:49:59 74° SSE 19:54:40 10° ENE visible
25 May - 21:25:54 10° W 21:30:42 78° N 21:35:15 10° E visible
25 May - 23:06:44 10° WNW 23:11:23 70° SSW 23:15:44 10° ESE visible
26 May - 00:47:55 10° W 00:51:26 22° SW 00:54:46 10° S visible
26 May - 18:10:10 10° SSW 18:14:40 37° SSE 18:19:04 10° E daylight
26 May - 19:50:11 10° WSW 19:55:04 87° SSE 19:59:46 10° ENE visible
26 May - 21:31:02 10° W 21:35:51 80° N 21:40:24 10° E visible
26 May - 23:11:51 10° WNW 23:16:25 54° SSW 23:20:41 10° SE visible
27 May - 00:53:36 10° W 00:56:13 15° SW 00:58:46 10° S visible
27 May - 16:37:02 10° SSE 16:39:45 15° SE 16:42:28 10° E daylight
27 May - 18:14:53 10° SW 18:19:38 49° SSE 18:24:15 10° ENE daylight
27 May - 19:55:18 10° W 20:00:12 84° N 20:04:53 10° E visible
27 May - 21:36:10 10° WNW 21:40:59 88° NNE 21:45:31 10° ESE visible
27 May - 23:17:02 10° W 23:21:23 40° SSW 23:25:30 10° SE visible
28 May - 16:40:50 10° S 16:44:33 22° SE 16:48:14 10° E daylight
28 May - 18:19:47 10° WSW 18:24:39 64° SSE 18:29:23 10° ENE daylight
28 May - 20:00:26 10° W 20:05:19 79° N 20:10:01 10° E visible
28 May - 21:41:17 10° WNW 21:46:05 81° SSW 21:50:36 10° ESE visible
28 May - 23:22:17 10° W 23:26:18 29° SW 23:30:06 10° SSE visible
29 May - 16:45:08 10° SSW 16:49:25 30° SE 16:53:39 10° E daylight
29 May - 18:24:47 10° WSW 18:29:42 79° SSE 18:34:30 10° ENE daylight
29 May - 20:05:35 10° W 20:10:28 78° N 20:15:09 10° E visible
29 May - 21:46:24 10° WNW 21:51:09 66° SSW 21:55:37 10° ESE visible
29 May - 23:27:42 10° W 23:31:08 21° SW 23:34:25 10° S visible
